TimeCDT,TemperatureF,Dew PointF,Humidity,Sea Level PressureIn,VisibilityMPH,Wind Direction,Wind SpeedMPH,Gust SpeedMPH,PrecipitationIn,Events,Conditions,WindDirDegrees,DateUTC
12:15 AM,72.3,46.8,40,30.10,10.0,South,12.7,17.3,N/A,,Clear,190,2011-10-08 05:15:00
12:35 AM,72.0,47.1,41,30.10,10.0,South,12.7,20.7,N/A,,Clear,190,2011-10-08 05:35:00
1:15 AM,71.4,47.7,43,30.10,10.0,South,13.8,19.6,N/A,,Clear,190,2011-10-08 06:15:00
1:35 AM,71.1,48.2,44,30.10,10.0,South,12.7,20.7,N/A,,Clear,190,2011-10-08 06:35:00
2:15 AM,70.2,48.6,46,30.12,10.0,South,13.8,20.7,N/A,,Clear,190,2011-10-08 07:15:00
2:55 AM,69.1,49.1,49,30.12,10.0,SSW,8.1,16.1,N/A,,Clear,200,2011-10-08 07:55:00
3:15 AM,68.4,49.3,50,30.12,10.0,South,12.7,16.1,N/A,,Clear,190,2011-10-08 08:15:00
3:35 AM,68.0,49.5,51,30.12,10.0,South,9.2,16.1,N/A,,Clear,190,2011-10-08 08:35:00
3:55 AM,67.8,49.8,52,30.13,10.0,SSW,11.5,-,N/A,,Clear,200,2011-10-08 08:55:00
4:35 AM,66.4,50.2,56,30.14,10.0,South,9.2,-,N/A,,Clear,180,2011-10-08 09:35:00
5:15 AM,65.7,50.4,58,30.15,10.0,South,11.5,17.3,N/A,,Clear,180,2011-10-08 10:15:00
6:15 AM,65.8,50.4,57,30.16,10.0,South,11.5,18.4,N/A,,Clear,180,2011-10-08 11:15:00
6:35 AM,65.7,50.4,58,30.16,10.0,South,12.7,19.6,N/A,,Clear,180,2011-10-08 11:35:00
7:55 AM,65.8,50.7,58,30.18,10.0,SW,4.6,-,N/A,,Clear,220,2011-10-08 12:55:00
8:15 AM,66.2,50.9,58,30.19,10.0,SW,4.6,-,N/A,,Clear,220,2011-10-08 13:15:00
8:35 AM,66.9,51.1,57,30.19,10.0,South,8.1,-,N/A,,Clear,180,2011-10-08 13:35:00
8:55 AM,67.5,51.4,56,30.19,10.0,South,8.1,-,N/A,,Clear,180,2011-10-08 13:55:00
9:15 AM,68.7,51.8,55,30.19,10.0,South,10.4,16.1,N/A,,Clear,190,2011-10-08 14:15:00
9:35 AM,69.4,51.8,53,30.20,10.0,South,11.5,18.4,N/A,,Clear,180,2011-10-08 14:35:00
9:55 AM,70.7,52.3,52,30.20,10.0,SSW,8.1,11.5,N/A,,Clear,200,2011-10-08 14:55:00
10:15 AM,71.6,52.3,51,30.20,10.0,South,13.8,24.2,N/A,,Clear,190,2011-10-08 15:15:00
10:35 AM,72.9,52.5,49,30.19,10.0,SSW,11.5,20.7,N/A,,Clear,200,2011-10-08 15:35:00
11:15 AM,75.0,53.1,46,30.20,10.0,South,12.7,19.6,N/A,,Clear,190,2011-10-08 16:15:00
11:35 AM,76.5,53.2,44,30.19,10.0,SSW,9.2,17.3,N/A,,Clear,200,2011-10-08 16:35:00
12:15 PM,78.1,53.1,42,30.18,10.0,SSW,11.5,23.0,N/A,,Clear,210,2011-10-08 17:15:00
12:35 PM,78.6,52.9,41,30.18,10.0,South,11.5,19.6,N/A,,Clear,190,2011-10-08 17:35:00
12:55 PM,79.7,52.7,39,30.18,10.0,South,19.6,25.3,N/A,,Clear,190,2011-10-08 17:55:00
1:15 PM,79.9,52.0,38,30.17,10.0,SSW,13.8,20.7,N/A,,Clear,200,2011-10-08 18:15:00
1:35 PM,80.6,52.0,37,30.16,10.0,South,11.5,24.2,N/A,,Clear,180,2011-10-08 18:35:00
1:55 PM,81.1,51.8,36,30.16,10.0,South,11.5,19.6,N/A,,Clear,190,2011-10-08 18:55:00
2:15 PM,81.5,51.6,35,30.16,10.0,South,12.7,20.7,N/A,,Clear,180,2011-10-08 19:15:00
2:55 PM,81.3,51.3,35,30.15,10.0,South,12.7,17.3,N/A,,Scattered Clouds,180,2011-10-08 19:55:00
3:15 PM,81.9,51.4,35,30.16,10.0,SSW,10.4,19.6,N/A,,Scattered Clouds,200,2011-10-08 20:15:00
3:35 PM,81.9,51.3,34,30.16,10.0,SSW,9.2,16.1,N/A,,Scattered Clouds,210,2011-10-08 20:35:00
3:55 PM,82.0,50.2,33,30.15,10.0,SSW,12.7,19.6,N/A,,Clear,200,2011-10-08 20:55:00
4:15 PM,81.9,50.0,33,30.15,10.0,South,12.7,16.1,N/A,,Clear,190,2011-10-08 21:15:00
4:35 PM,81.3,50.0,33,30.15,10.0,South,15.0,19.6,N/A,,Clear,190,2011-10-08 21:35:00
4:55 PM,80.8,50.0,34,30.15,10.0,South,11.5,17.3,N/A,,Clear,190,2011-10-08 21:55:00
5:15 PM,80.4,50.0,34,30.15,10.0,South,11.5,17.3,N/A,,Clear,190,2011-10-08 22:15:00
5:35 PM,79.7,50.7,36,30.15,10.0,SSE,11.5,-,N/A,,Clear,160,2011-10-08 22:35:00
5:55 PM,78.4,51.4,39,30.15,10.0,South,6.9,-,N/A,,Clear,180,2011-10-08 22:55:00
6:15 PM,76.5,52.0,42,30.15,10.0,South,5.8,-,N/A,,Clear,180,2011-10-08 23:15:00
6:35 PM,74.3,52.0,46,30.15,10.0,SSE,5.8,-,N/A,,Clear,160,2011-10-08 23:35:00
6:55 PM,72.5,51.8,48,30.16,10.0,SSE,4.6,-,N/A,,Clear,150,2011-10-08 23:55:00
7:15 PM,70.9,51.6,50,30.16,10.0,SE,4.6,-,N/A,,Clear,140,2011-10-09 00:15:00
7:35 PM,70.0,51.8,52,30.16,10.0,SE,4.6,-,N/A,,Clear,140,2011-10-09 00:35:00
7:55 PM,67.5,51.8,57,30.17,10.0,SSE,5.8,-,N/A,,Clear,160,2011-10-09 00:55:00
8:15 PM,69.3,51.8,54,30.18,10.0,SSE,6.9,-,N/A,,Clear,160,2011-10-09 01:15:00
8:35 PM,70.7,51.4,50,30.18,10.0,SSE,5.8,-,N/A,,Clear,150,2011-10-09 01:35:00
9:15 PM,70.5,50.9,50,30.18,10.0,SSE,8.1,-,N/A,,Clear,160,2011-10-09 02:15:00
9:35 PM,70.9,50.9,49,30.19,10.0,SSE,8.1,-,N/A,,Clear,160,2011-10-09 02:35:00
9:55 PM,70.3,50.9,50,30.19,10.0,South,6.9,-,N/A,,Clear,170,2011-10-09 02:55:00
10:15 PM,70.2,50.4,49,30.20,10.0,South,6.9,-,N/A,,Clear,170,2011-10-09 03:15:00
10:35 PM,70.0,49.8,49,30.20,10.0,South,8.1,-,N/A,,Clear,190,2011-10-09 03:35:00
10:55 PM,70.7,49.3,47,30.20,10.0,South,5.8,-,N/A,,Clear,190,2011-10-09 03:55:00
11:15 PM,70.5,49.1,47,30.21,10.0,South,6.9,-,N/A,,Clear,190,2011-10-09 04:15:00
11:35 PM,69.8,49.1,48,30.21,10.0,South,8.1,-,N/A,,Clear,180,2011-10-09 04:35:00
11:55 PM,69.1,48.7,48,30.22,10.0,South,5.8,-,N/A,,Clear,190,2011-10-09 04:55:00